Time,TemperatureF,DewpointF,PressureIn,WindDirection,WindDirectionDegrees,WindSpeedMPH,WindSpeedGustMPH,Humidity,HourlyPrecipIn,Conditions,Clouds,dailyrainin,SoftwareType,DateUTC
2013-12-25 00:11:00,18.9,13.0,30.33,SSW,197,0.0,-999.0,76,-99.99,,,0.00,weatherlink.com 1.10,2013-12-25 06:11:00,
2013-12-25 00:26:00,18.9,12.0,30.32,SSW,197,2.0,-999.0,75,-99.99,,,0.00,weatherlink.com 1.10,2013-12-25 06:26:00,
2013-12-25 00:41:00,19.1,12.0,30.31,SSW,193,0.0,-999.0,74,-99.99,,,0.00,weatherlink.com 1.10,2013-12-25 06:41:00,
2013-12-25 00:56:00,19.2,12.0,30.30,SSW,210,0.0,-999.0,74,-99.99,,,0.00,weatherlink.com 1.10,2013-12-25 06:56:00,
2013-12-25 01:11:00,19.4,12.0,30.31,SSE,166,0.0,-999.0,73,-99.99,,,0.00,weatherlink.com 1.10,2013-12-25 07:11:00,
2013-12-25 01:26:00,19.5,12.0,30.30,South,186,1.0,-999.0,72,-99.99,,,0.00,weatherlink.com 1.10,2013-12-25 07:26:00,
2013-12-25 01:41:00,19.7,12.0,30.29,South,177,1.0,-999.0,72,-99.99,,,0.00,weatherlink.com 1.10,2013-12-25 07:41:00,
2013-12-25 01:57:00,19.9,12.0,30.28,South,174,0.0,-999.0,72,-99.99,,,0.00,weatherlink.com 1.10,2013-12-25 07:57:00,
2013-12-25 02:12:00,20.0,12.0,30.27,South,171,1.0,-999.0,71,-99.99,,,0.00,weatherlink.com 1.10,2013-12-25 08:12:00,
2013-12-25 02:27:00,20.3,12.0,30.27,SW,228,3.0,-999.0,70,-99.99,,,0.00,weatherlink.com 1.10,2013-12-25 08:27:00,
2013-12-25 02:42:00,20.5,12.0,30.26,SE,143,2.0,-999.0,70,-99.99,,,0.00,weatherlink.com 1.10,2013-12-25 08:42:00,
2013-12-25 02:57:00,20.6,12.0,30.25,SSE,166,1.0,-999.0,70,-99.99,,,0.00,weatherlink.com 1.10,2013-12-25 08:57:00,
2013-12-25 03:12:00,20.8,12.0,30.24,SSW,211,0.0,-999.0,69,-99.99,,,0.00,weatherlink.com 1.10,2013-12-25 09:12:00,
2013-12-25 03:27:00,21.0,12.0,30.24,South,178,2.0,-999.0,69,-99.99,,,0.00,weatherlink.com 1.10,2013-12-25 09:27:00,
2013-12-25 03:42:00,21.0,13.0,30.24,South,187,0.0,-999.0,70,-99.99,,,0.00,weatherlink.com 1.10,2013-12-25 09:42:00,
2013-12-25 03:57:00,21.1,13.0,30.24,South,177,2.0,-999.0,71,-99.99,,,0.00,weatherlink.com 1.10,2013-12-25 09:57:00,
2013-12-25 04:12:00,21.1,13.0,30.23,SSW,201,2.0,-999.0,72,-99.99,,,0.00,weatherlink.com 1.10,2013-12-25 10:12:00,
2013-12-25 04:27:00,21.1,14.0,30.24,South,181,0.0,-999.0,74,-99.99,,,0.00,weatherlink.com 1.10,2013-12-25 10:27:00,
2013-12-25 04:42:00,21.1,15.0,30.23,SSE,152,2.0,-999.0,76,-99.99,,,0.00,weatherlink.com 1.10,2013-12-25 10:42:00,
2013-12-25 04:57:00,21.0,15.0,30.22,South,188,0.0,-999.0,77,-99.99,,,0.00,weatherlink.com 1.10,2013-12-25 10:57:00,
2013-12-25 05:12:00,21.0,15.0,30.22,SSW,211,0.0,-999.0,78,-99.99,,,0.00,weatherlink.com 1.10,2013-12-25 11:12:00,
2013-12-25 05:27:00,21.0,16.0,30.22,SSE,156,2.0,-999.0,80,-99.99,,,0.00,weatherlink.com 1.10,2013-12-25 11:27:00,
2013-12-25 05:42:00,20.8,16.0,30.22,SSE,160,3.0,-999.0,81,-99.99,,,0.00,weatherlink.com 1.10,2013-12-25 11:42:00,
2013-12-25 05:57:00,20.8,16.0,30.22,SSW,204,2.0,-999.0,83,-99.99,,,0.00,weatherlink.com 1.10,2013-12-25 11:57:00,
2013-12-25 06:12:00,20.8,16.0,30.22,SSW,212,0.0,-999.0,83,-99.99,,,0.00,weatherlink.com 1.10,2013-12-25 12:12:00,
2013-12-25 06:27:00,20.8,17.0,30.22,South,181,2.0,-999.0,84,-99.99,,,0.00,weatherlink.com 1.10,2013-12-25 12:27:00,
2013-12-25 06:42:00,21.0,17.0,30.22,South,173,1.0,-999.0,84,-99.99,,,0.00,weatherlink.com 1.10,2013-12-25 12:42:00,
2013-12-25 06:57:00,21.1,17.0,30.22,SSW,200,0.0,-999.0,83,-99.99,,,0.00,weatherlink.com 1.10,2013-12-25 12:57:00,
2013-12-25 07:12:00,21.3,17.0,30.21,SSW,201,0.0,-999.0,83,-99.99,,,0.00,weatherlink.com 1.10,2013-12-25 13:12:00,
2013-12-25 07:27:00,21.4,17.0,30.21,SSW,197,0.0,-999.0,83,-99.99,,,0.00,weatherlink.com 1.10,2013-12-25 13:27:00,
2013-12-25 07:43:00,21.8,17.0,30.21,SW,218,0.0,-999.0,83,-99.99,,,0.00,weatherlink.com 1.10,2013-12-25 13:43:00,
2013-12-25 07:58:00,22.1,18.0,30.21,South,190,4.0,-999.0,83,-99.99,,,0.00,weatherlink.com 1.10,2013-12-25 13:58:00,
2013-12-25 08:13:00,22.2,18.0,30.21,SSW,205,0.0,-999.0,82,-99.99,,,0.00,weatherlink.com 1.10,2013-12-25 14:13:00,
2013-12-25 08:27:00,22.5,18.0,30.21,South,190,1.0,-999.0,82,-99.99,,,0.00,weatherlink.com 1.10,2013-12-25 14:27:00,
2013-12-25 08:43:00,22.7,18.0,30.20,SSW,198,0.0,-999.0,82,-99.99,,,0.00,weatherlink.com 1.10,2013-12-25 14:43:00,
2013-12-25 08:58:00,22.9,19.0,30.20,WSW,243,0.0,-999.0,83,-99.99,,,0.00,weatherlink.com 1.10,2013-12-25 14:58:00,
2013-12-25 09:12:00,23.2,19.0,30.20,WSW,250,1.0,-999.0,83,-99.99,,,0.00,weatherlink.com 1.10,2013-12-25 15:12:00,
2013-12-25 09:27:00,23.5,19.0,30.20,SW,229,0.0,-999.0,83,-99.99,,,0.00,weatherlink.com 1.10,2013-12-25 15:27:00,
2013-12-25 09:43:00,23.6,19.0,30.20,SSW,205,2.0,-999.0,83,-99.99,,,0.00,weatherlink.com 1.10,2013-12-25 15:43:00,
2013-12-25 09:58:00,23.8,19.0,30.20,SW,228,5.0,-999.0,83,-99.99,,,0.00,weatherlink.com 1.10,2013-12-25 15:58:00,
2013-12-25 10:12:00,24.1,20.0,30.19,WSW,246,1.0,-999.0,83,-99.99,,,0.00,weatherlink.com 1.10,2013-12-25 16:12:00,
2013-12-25 10:27:00,24.2,20.0,30.19,SW,228,0.0,-999.0,83,-99.99,,,0.00,weatherlink.com 1.10,2013-12-25 16:27:00,
2013-12-25 10:43:00,24.5,20.0,30.18,SW,231,4.0,-999.0,83,-99.99,,,0.00,weatherlink.com 1.10,2013-12-25 16:43:00,
2013-12-25 10:58:00,24.7,20.0,30.18,SW,226,0.0,-999.0,82,-99.99,,,0.00,weatherlink.com 1.10,2013-12-25 16:58:00,
2013-12-25 11:13:00,24.8,20.0,30.17,SW,231,0.0,-999.0,82,-99.99,,,0.00,weatherlink.com 1.10,2013-12-25 17:13:00,
2013-12-25 11:28:00,25.1,20.0,30.17,WSW,239,3.0,-999.0,82,-99.99,,,0.00,weatherlink.com 1.10,2013-12-25 17:28:00,
2013-12-25 11:43:00,25.3,21.0,30.16,South,173,3.0,-999.0,82,-99.99,,,0.00,weatherlink.com 1.10,2013-12-25 17:43:00,
2013-12-25 11:58:00,25.4,21.0,30.15,South,184,1.0,-999.0,83,-99.99,,,0.00,weatherlink.com 1.10,2013-12-25 17:58:00,
2013-12-25 12:13:00,25.6,21.0,30.14,WSW,248,0.0,-999.0,83,-99.99,,,0.00,weatherlink.com 1.10,2013-12-25 18:13:00,
2013-12-25 12:28:00,25.6,21.0,30.14,SW,231,2.0,-999.0,83,-99.99,,,0.00,weatherlink.com 1.10,2013-12-25 18:28:00,
2013-12-25 12:43:00,25.8,21.0,30.14,WSW,248,3.0,-999.0,82,-99.99,,,0.00,weatherlink.com 1.10,2013-12-25 18:43:00,
2013-12-25 12:58:00,26.0,22.0,30.12,WSW,249,2.0,-999.0,83,-99.99,,,0.00,weatherlink.com 1.10,2013-12-25 18:58:00,
2013-12-25 13:13:00,26.0,22.0,30.12,WSW,239,0.0,-999.0,84,-99.99,,,0.00,weatherlink.com 1.10,2013-12-25 19:13:00,
2013-12-25 13:28:00,26.1,22.0,30.11,South,190,2.0,-999.0,83,-99.99,,,0.00,weatherlink.com 1.10,2013-12-25 19:28:00,
2013-12-25 13:43:00,26.3,22.0,30.12,WSW,245,1.0,-999.0,83,-99.99,,,0.00,weatherlink.com 1.10,2013-12-25 19:43:00,
2013-12-25 13:58:00,26.4,22.0,30.11,WSW,256,2.0,-999.0,83,-99.99,,,0.00,weatherlink.com 1.10,2013-12-25 19:58:00,
2013-12-25 14:13:00,26.4,22.0,30.11,WSW,239,0.0,-999.0,83,-99.99,,,0.00,weatherlink.com 1.10,2013-12-25 20:13:00,
2013-12-25 14:28:00,26.6,22.0,30.11,West,265,0.0,-999.0,83,-99.99,,,0.00,weatherlink.com 1.10,2013-12-25 20:28:00,
2013-12-25 14:43:00,26.7,23.0,30.11,SW,231,0.0,-999.0,84,-99.99,,,0.00,weatherlink.com 1.10,2013-12-25 20:43:00,
2013-12-25 14:58:00,26.7,23.0,30.11,South,187,2.0,-999.0,84,-99.99,,,0.00,weatherlink.com 1.10,2013-12-25 20:58:00,
2013-12-25 15:13:00,26.9,23.0,30.11,SSW,208,0.0,-999.0,84,-99.99,,,0.00,weatherlink.com 1.10,2013-12-25 21:13:00,
2013-12-25 15:28:00,26.9,23.0,30.11,SW,221,0.0,-999.0,84,-99.99,,,0.00,weatherlink.com 1.10,2013-12-25 21:28:00,
2013-12-25 15:43:00,26.9,23.0,30.11,SW,215,2.0,-999.0,85,-99.99,,,0.00,weatherlink.com 1.10,2013-12-25 21:43:00,
2013-12-25 15:58:00,26.9,23.0,30.10,SW,236,0.0,-999.0,85,-99.99,,,0.00,weatherlink.com 1.10,2013-12-25 21:58:00,
2013-12-25 16:13:00,26.9,23.0,30.10,SSW,204,0.0,-999.0,86,-99.99,,,0.00,weatherlink.com 1.10,2013-12-25 22:13:00,
2013-12-25 16:28:00,26.7,23.0,30.09,WSW,238,2.0,-999.0,87,-99.99,,,0.00,weatherlink.com 1.10,2013-12-25 22:28:00,
2013-12-25 16:43:00,26.7,23.0,30.09,SW,236,3.0,-999.0,87,-99.99,,,0.00,weatherlink.com 1.10,2013-12-25 22:43:00,
2013-12-25 16:58:00,26.7,24.0,30.09,WSW,243,0.0,-999.0,88,-99.99,,,0.00,weatherlink.com 1.10,2013-12-25 22:58:00,
2013-12-25 17:13:00,26.7,24.0,30.09,WSW,242,1.0,-999.0,88,-99.99,,,0.00,weatherlink.com 1.10,2013-12-25 23:13:00,
2013-12-25 17:28:00,26.7,24.0,30.09,SSW,212,0.0,-999.0,89,-99.99,,,0.00,weatherlink.com 1.10,2013-12-25 23:28:00,
2013-12-25 17:43:00,26.9,24.0,30.09,SW,225,0.0,-999.0,89,-99.99,,,0.00,weatherlink.com 1.10,2013-12-25 23:43:00,
2013-12-25 17:58:00,26.9,24.0,30.09,WSW,250,0.0,-999.0,89,-99.99,,,0.00,weatherlink.com 1.10,2013-12-25 23:58:00,
2013-12-25 18:13:00,27.0,24.0,30.09,WSW,250,0.0,-999.0,89,-99.99,,,0.00,weatherlink.com 1.10,2013-12-26 00:13:00,
2013-12-25 18:28:00,27.0,25.0,30.09,WSW,250,0.0,-999.0,90,-99.99,,,0.00,weatherlink.com 1.10,2013-12-26 00:28:00,
2013-12-25 18:43:00,27.2,25.0,30.09,WSW,250,0.0,-999.0,90,-99.99,,,0.00,weatherlink.com 1.10,2013-12-26 00:43:00,
2013-12-25 18:58:00,27.2,25.0,30.09,WSW,250,0.0,-999.0,90,-99.99,,,0.00,weatherlink.com 1.10,2013-12-26 00:58:00,
2013-12-25 19:13:00,27.2,25.0,30.09,WSW,248,0.0,-999.0,90,-99.99,,,0.00,weatherlink.com 1.10,2013-12-26 01:13:00,
2013-12-25 19:28:00,27.0,25.0,30.08,WSW,238,0.0,-999.0,90,-99.99,,,0.00,weatherlink.com 1.10,2013-12-26 01:28:00,
2013-12-25 19:43:00,26.9,24.0,30.08,WSW,252,0.0,-999.0,90,-99.99,,,0.00,weatherlink.com 1.10,2013-12-26 01:43:00,
2013-12-25 19:58:00,26.9,25.0,30.07,South,176,0.0,-999.0,91,-99.99,,,0.00,weatherlink.com 1.10,2013-12-26 01:58:00,
2013-12-25 20:13:00,26.7,24.0,30.07,WSW,250,0.0,-999.0,90,-99.99,,,0.00,weatherlink.com 1.10,2013-12-26 02:13:00,
2013-12-25 20:28:00,26.7,24.0,30.07,WSW,248,2.0,-999.0,90,-99.99,,,0.00,weatherlink.com 1.10,2013-12-26 02:28:00,
2013-12-25 20:43:00,26.6,24.0,30.07,WSW,242,0.0,-999.0,90,-99.99,,,0.00,weatherlink.com 1.10,2013-12-26 02:43:00,
2013-12-25 20:58:00,26.6,24.0,30.06,WSW,242,0.0,-999.0,90,-99.99,,,0.00,weatherlink.com 1.10,2013-12-26 02:58:00,
2013-12-25 21:13:00,26.4,24.0,30.07,WSW,258,0.0,-999.0,90,-99.99,,,0.00,weatherlink.com 1.10,2013-12-26 03:13:00,
2013-12-25 21:28:00,26.4,24.0,30.06,WSW,246,3.0,-999.0,90,-99.99,,,0.00,weatherlink.com 1.10,2013-12-26 03:28:00,
2013-12-25 21:44:00,26.3,24.0,30.05,WSW,249,0.0,-999.0,90,-99.99,,,0.00,weatherlink.com 1.10,2013-12-26 03:44:00,
2013-12-25 21:59:00,26.1,24.0,30.05,WSW,249,0.0,-999.0,90,-99.99,,,0.00,weatherlink.com 1.10,2013-12-26 03:59:00,
2013-12-25 22:14:00,26.1,23.0,30.05,WSW,250,0.0,-999.0,89,-99.99,,,0.00,weatherlink.com 1.10,2013-12-26 04:14:00,
2013-12-25 22:29:00,26.0,23.0,30.05,SW,232,0.0,-999.0,88,-99.99,,,0.00,weatherlink.com 1.10,2013-12-26 04:29:00,
2013-12-25 22:44:00,26.0,23.0,30.05,WSW,243,0.0,-999.0,88,-99.99,,,0.00,weatherlink.com 1.10,2013-12-26 04:44:00,
2013-12-25 22:59:00,26.1,23.0,30.05,WSW,253,1.0,-999.0,88,-99.99,,,0.00,weatherlink.com 1.10,2013-12-26 04:59:00,
2013-12-25 23:14:00,26.1,23.0,30.05,WSW,253,1.0,-999.0,87,-99.99,,,0.00,weatherlink.com 1.10,2013-12-26 05:14:00,
2013-12-25 23:29:00,26.3,23.0,30.05,West,259,0.0,-999.0,87,-99.99,,,0.00,weatherlink.com 1.10,2013-12-26 05:29:00,
2013-12-25 23:44:00,26.3,23.0,30.05,South,169,0.0,-999.0,87,-99.99,,,0.00,weatherlink.com 1.10,2013-12-26 05:44:00,
2013-12-25 23:59:00,26.4,23.0,30.04,SW,228,0.0,-999.0,87,-99.99,,,0.00,weatherlink.com 1.10,2013-12-26 05:59:00,